Capo Bellavista, Italy

6:42 AM CEST on September 26, 2016 (GMT +0200)
Capo Bellavista

Weather History for LIEB - October, 2013

Change the Weather History Date:

Thursday, October 10, 2013

  Actual Average (LIED) Record (LIED)
Temperature  
Mean Temperature 69 °F -  
Max Temperature 76 °F 75 °F 89 °F (2001)
Min Temperature 62 °F 57 °F 46 °F (2011)
Cooling Degree Days 4    
Growing Degree Days 19 (Base 50)    
Moisture  
Dew Point 58 °F    
Average Humidity 73    
Maximum Humidity 88    
Minimum Humidity 61    
Precipitation  
Precipitation 0.00 in - - ()
Sea Level Pressure  
Sea Level Pressure 29.93 in    
Wind  
Wind Speed 8 mph ()    
Max Wind Speed 16 mph    
Max Gust Speed -    
Visibility 7.8 miles    
Events      
Averages and records for this station are not official NWS values.
T = Trace of Precipitation, MM = Missing Value Source: Averaged Metar Reports

Daily Weather History Graph

Daily Weather History Graph

Search for Another Location

Airport or City:

Trip Planner

Search our weather history database for the weather conditions in past years. The results will help you decide how hot, cold, wet, or windy it might be!

Date:

Astronomy

Oct. 10, 2013 Rise Set
Actual Time 7:26 AM CEST 6:49 PM CEST
Civil Twilight 6:59 AM CEST 7:16 PM CEST
Nautical Twilight 6:27 AM CEST 7:47 PM CEST
Astronomical Twilight 5:56 AM CEST 8:18 PM CEST
Moon 1:02 PM CEST (10/10) 11:09 PM CEST (10/10)
Length of Visible Light 12h 17m
Length of Day
11h 22m
Waxing Crescent, 33% of the Moon is Illuminated
Oct 10
Waxing Crescent
Oct 12
First Quarter
Oct 19
Full
Oct 27
Last Quarter
Nov 3
New

Hourly Weather History & Observations

Time (CEST) Temp. Dew Point Humidity Pressure Visibility Wind Dir Wind Speed Gust Speed Precip Events Conditions
12:55 AM 64.4 °F 60.8 °F 88% 30.04 in - WNW 9.2 mph - N/A   Clear
1:55 AM 62.6 °F 59.0 °F 88% 30.04 in - WNW 10.4 mph - N/A   Clear
2:55 AM 62.6 °F 59.0 °F 88% 30.04 in - WNW 11.5 mph - N/A   Clear
3:55 AM 62.6 °F 59.0 °F 88% 30.01 in 6.2 mi West 8.1 mph - N/A   Partly Cloudy
4:55 AM 62.6 °F 59.0 °F 88% 30.01 in 6.2 mi West 6.9 mph - N/A   Partly Cloudy
5:55 AM 64.4 °F 51.8 °F 64% 29.98 in - WNW 1.2 mph - N/A   Clear
6:55 AM 64.4 °F 55.4 °F 73% 29.98 in 6.2 mi NW 5.8 mph - N/A   Partly Cloudy
7:55 AM 62.6 °F 51.8 °F 68% 29.95 in 6.2 mi WNW 11.5 mph - N/A   Partly Cloudy
8:00 AM 62 °F 52 °F 62% 29.97 in 12 mi WNW 11.5 mph - -   Scattered Clouds
8:55 AM 62.6 °F 53.6 °F 72% 29.95 in 6.2 mi NW 12.7 mph - N/A   Partly Cloudy
9:55 AM 64.4 °F 53.6 °F 68% 29.95 in - NW 4.6 mph - N/A   Clear
10:55 AM 68.0 °F 57.2 °F 68% 29.95 in - WNW 4.6 mph - N/A   Clear
11:55 AM 73.4 °F 59.0 °F 61% 29.95 in - East 9.2 mph - N/A   Clear
12:55 PM 73.4 °F 60.8 °F 65% 29.95 in - East 9.2 mph - N/A   Clear
1:55 PM 73.4 °F 64.4 °F 73% 29.95 in - East 11.5 mph - N/A   Clear
2:00 PM 73 °F 64 °F 66% 29.94 in 12 mi East 11.5 mph - -  
2:55 PM 73.4 °F 62.6 °F 69% 29.89 in 6.2 mi NNE 10.4 mph - N/A   Partly Cloudy
3:55 PM 71.6 °F 62.6 °F 73% 29.89 in - East 9.2 mph - N/A   Clear
4:55 PM 71.6 °F 62.6 °F 73% 29.86 in 6.2 mi East 6.9 mph - N/A   Partly Cloudy
5:55 PM 71.6 °F 60.8 °F 69% 29.86 in 6.2 mi SE 3.5 mph - N/A   Partly Cloudy
6:55 PM 69.8 °F 59.0 °F 68% 29.86 in - WSW 2.3 mph - N/A   Clear
7:55 PM 68.0 °F 59.0 °F 73% 29.83 in - West 8.1 mph - N/A   Clear
8:00 PM 68 °F 60 °F 68% 29.84 in 12 mi West 8.1 mph - -  
8:55 PM 68.0 °F 60.8 °F 78% 29.83 in - WNW 10.4 mph - N/A   Clear
9:55 PM 66.2 °F 57.2 °F 73% 29.83 in - NW 16.1 mph - N/A   Clear
10:55 PM 66.2 °F 55.4 °F 68% 29.86 in - WNW 12.7 mph - N/A   Clear
11:55 PM 66.2 °F 55.4 °F 68% 29.86 in - WNW 13.8 mph - N/A   Clear